DW0967 Weather Reports


time (UTC)temp
F
wind
direction
speed
knots
gust
knots
rain 1hr
in
rain 24hr
in
rain mn
in
humidity
%
barometer
mb
20221128081205 45 166 7.0 11.3 0.00 0.00 0.00 30 1002.7
20221128074704 44 203 2.6 10.4 0.00 0.00 0.00 30 1003.3
20221128073705 45 179 4.3 7.8 0.00 0.00 0.00 31 1003.3
20221128071333 46 215 6.1 15.6 0.00 0.00 0.00 30 1003.7
20221128064205 43 229 3.5 7.8 0.00 0.00 0.00 34 1004.4
20221128061205 44 186 2.6 8.7 0.00 0.00 0.00 33 1004.4
20221128060704 44 285 6.1 15.6 0.00 0.00 0.00 33 1004.1
20221128060205 42 264 8.7 14.8 0.00 0.00 0.00 35 1004.1
20221128053205 42 237 0.9 6.1 0.00 0.00 0.00 34 1003.9
20221128051205 43 260 3.5 6.1 0.00 0.00 0.00 33 1004.0
20221128043705 45 323 13.9 22.6 0.00 0.00 0.00 31 1004.7
20221128041705 45 297 8.7 14.8 0.00 0.00 0.00 30 1004.7
20221128041206 45 309 11.3 17.4 0.00 0.00 0.00 30 1004.1
20221128034205 44 329 6.1 13.9 0.00 0.00 0.00 31 1004.0
20221128033705 44 319 12.2 17.4 0.00 0.00 0.00 31 1004.0
20221128031705 41 267 7.0 14.8 0.00 0.00 0.00 36 1004.0
20221128030205 41 255 4.3 8.7 0.00 0.00 0.00 39 1004.0
20221128024205 43 215 5.2 10.4 0.00 0.00 0.00 38 1004.0
20221128023705 44 162 4.3 10.4 0.00 0.00 0.00 36 1004.0
20221128023204 44 176 5.2 11.3 0.00 0.00 0.00 33 1004.9
20221128014705 44 243 4.3 7.8 0.00 0.00 0.00 25 1005.5
20221128013205 45 303 3.5 10.4 0.00 0.00 0.00 24 1006.4
20221128004205 41 206 1.7 6.1 0.00 0.00 0.00 35 1006.4
20221128001705 44 335 4.3 5.2 0.00 0.00 0.00 26 1006.4
20221128001205 44 308 2.6 5.2 0.00 0.00 0.00 28 1006.4
20221128000705 44 313 0.9 4.3 0.00 0.00 0.00 33 1006.5
20221127233704 44 198 0.9 2.6 0.00 0.00 0.00 41 1006.4
20221127231205 46 162 4.3 7.8 0.00 0.00 0.00 37 1006.0
20221127224705 48 161 5.2 8.7 0.00 0.00 0.00 35 1006.3
20221127223704 49 166 4.3 6.1 0.00 0.00 0.00 34 1006.3
20221127223205 50 186 3.5 11.3 0.00 0.00 0.00 31 1006.3
20221127220705 50 290 6.1 10.4 0.00 0.00 0.00 25 1007.3
20221127214205 47 180 2.6 5.2 0.00 0.00 0.00 41 1007.3
20221127211704 48 96 1.7 2.6 0.00 0.00 0.00 36 1007.3
20221127211205 48 96 2.6 5.2 0.00 0.00 0.00 34 1007.3
20221127210205 48 71 3.5 6.1 0.00 0.00 0.00 38 1007.8
20221127204704 49 59 4.3 7.8 0.00 0.00 0.00 38 1007.8
20221127204204 50 58 2.6 4.3 0.00 0.00 0.00 39 1007.8
20221127203706 49 81 2.6 4.3 0.00 0.00 0.00 38 1007.8
20221127201204 48 105 2.6 2.6 0.00 0.00 0.00 40 1008.6
20221127200704 48 148 2.6 5.2 0.00 0.00 0.00 41 1008.6
20221127191705 47 147 2.6 6.1 0.00 0.00 0.00 45 1008.6
20221127190705 47 159 6.1 10.4 0.00 0.00 0.00 46 1009.1
20221127184706 46 155 3.5 8.7 0.00 0.00 0.00 50 1009.1
20221127184209 45 161 4.3 6.1 0.00 0.00 0.00 51 1009.2
20221127183705 45 159 4.3 8.7 0.00 0.00 0.00 50 1009.2
20221127181705 44 146 2.6 7.0 0.00 0.00 0.00 55 1010.4
20221127180714 44 160 3.5 7.0 0.00 0.00 0.00 56 1010.4
20221127174705 43 145 3.5 7.8 0.00 0.00 0.00 59 1010.7
20221127173710 42 164 4.3 8.7 0.00 0.00 0.00 61 1010.7
20221127173210 42 159 5.2 10.4 0.00 0.00 0.00 62 1010.9
20221127171704 41 162 5.2 10.4 0.00 0.00 0.00 64 1010.9
20221127170205 41 169 5.2 10.4 0.00 0.00 0.00 66 1011.3
20221127164205 40 141 4.3 7.0 0.00 0.00 0.00 68 1011.9
20221127163204 39 171 4.3 7.8 0.00 0.00 0.00 69 1011.9
20221127154205 36 202 1.7 2.6 0.00 0.00 0.00 79 1011.8
20221127151704 34 154 2.6 4.3 0.00 0.00 0.00 85 1012.6
20221127150204 33 70 0.9 2.6 0.00 0.00 0.00 88 1012.6
20221127144705 31 55 0.9 1.7 0.00 0.00 0.00 89 1012.3
20221127143704 30 41 0.9 1.7 0.00 0.00 0.00 89 1012.7
20221127140204 30 41 0.9 1.7 0.00 0.00 0.00 88 1012.7
20221127134705 30 41 0.0 0.9 0.00 0.00 0.00 87 1012.7
20221127133704 31 41 0.0 1.7 0.00 0.00 0.00 87 1013.0
20221127133205 31 41 0.9 1.7 0.00 0.00 0.00 87 1013.0
20221127131204 32 41 0.9 1.7 0.00 0.00 0.00 86 1012.7
20221127124704 33 41 0.9 1.7 0.00 0.00 0.00 85 1012.7
20221127123205 33 41 0.0 0.9 0.00 0.00 0.00 85 1012.7
20221127121704 33 41 0.0 0.0 0.00 0.00 0.00 85 1012.7
20221127114205 33 41 0.9 1.7 0.00 0.00 0.00 85 1013.0
20221127113205 34 41 0.0 0.9 0.00 0.00 0.00 84 1013.0
20221127111704 34 41 0.0 0.9 0.00 0.00 0.00 84 1013.0
20221127111204 34 41 0.0 1.7 0.00 0.00 0.00 84 1013.0
20221127110204 34 41 0.0 0.9 0.00 0.00 0.00 84 1013.0
20221127103704 34 41 0.9 1.7 0.00 0.00 0.00 83 1013.1
20221127103205 34 41 0.9 2.6 0.00 0.00 0.00 82 1013.1
20221127101705 34 41 1.7 2.6 0.00 0.00 0.00 82 1013.3
20221127101207 34 41 1.7 2.6 0.00 0.00 0.00 81 1013.3
20221127094704 34 36 1.7 2.6 0.00 0.00 0.00 81 1013.3
20221127094205 34 25 1.7 2.6 0.00 0.00 0.00 81 1013.3
20221127093707 34 25 1.7 2.6 0.00 0.00 0.00 81 1013.3
20221127093204 35 25 1.7 2.6 0.00 0.00 0.00 81 1013.1
20221127091704 35 5 1.7 2.6 0.00 0.00 0.00 82 1013.1
20221127083705 34 355 0.9 1.7 0.00 0.00 0.00 84 1013.3
20221127083204 34 355 0.9 1.7 0.00 0.00 0.00 84 1013.3